Theta_e
342 344 339 333 328 331 336 335 332 332 333 334 331 331 335 333 328 330 336 332 329 333 336 330 329 333 335 337 337 336 336 332 330 331 331 330 330 332 334 335 337 338 332 324 322 320 319 320 319 320 321 321 321 321 321 320 320 321 322 321 322 323 322 321 321 320 319 318 317 316 315 313 312 311 311 312 314 314 314 315 315 315 315 314 313 313 313
338 347 340 334 330 329 331 336 338 339 339 337 336 339 339 333 332 338 338 333 332 333 331 330 331 334 335 333 331 333 332 329 331 333 330 329 330 332 335 334 337 340 330 321 320 320 319 318 318 319 321 321 321 321 321 320 320 322 322 321 321 321 321 320 320 319 318 318 317 316 315 313 311 311 311 313 315 314 314 315 315 314 314 313 313 312 312
336 351 343 335 334 329 327 332 339 341 340 337 335 338 336 331 331 334 329 327 330 332 333 334 333 332 330 329 331 333 331 332 336 334 331 332 330 331 335 334 335 336 328 319 319 320 318 317 317 317 318 320 320 320 320 319 320 321 322 321 321 321 320 320 320 319 318 317 316 314 313 311 311 311 312 313 315 314 314 314 314 313 313 313 312 312 312
335 346 338 333 334 328 326 332 337 339 339 337 336 338 336 334 333 328 321 322 331 336 335 333 331 330 328 328 333 336 334 336 338 335 333 333 330 331 333 332 332 333 327 320 318 318 318 318 317 316 316 317 317 318 318 318 319 321 321 321 321 321 321 320 319 318 317 315 313 312 312 311 311 311 312 313 314 313 313 313 312 312 312 311 311 311 311
336 343 338 335 330 325 330 340 340 338 340 337 333 333 333 334 334 329 324 328 337 338 333 330 331 332 331 331 336 338 336 336 337 335 334 332 332 334 333 333 333 331 324 320 318 319 318 318 318 318 317 317 317 316 316 316 318 319 320 321 321 320 320 319 318 317 316 314 313 312 312 311 311 312 312 312 312 312 311 311 310 310 310 310 310 310 310
338 346 341 333 327 326 337 349 344 338 339 336 332 335 338 335 331 330 330 332 337 336 333 332 334 336 336 334 334 336 336 336 336 335 334 334 334 333 334 334 330 323 320 319 318 319 319 318 318 319 318 318 317 316 316 316 317 317 319 320 319 318 318 318 317 317 315 314 313 312 312 311 311 311 311 311 311 310 310 309 309 309 309 309 309 309 310
338 343 335 327 329 335 342 344 339 337 340 338 334 338 344 338 331 330 329 330 335 335 332 332 333 337 338 332 331 336 337 334 335 335 333 334 335 334 336 335 325 319 319 320 319 319 319 319 319 319 319 319 317 316 316 316 315 316 316 316 316 315 315 315 315 315 315 314 313 313 312 311 311 311 311 310 310 310 310 309 309 309 309 309 310 310 310
333 331 325 325 332 339 340 333 328 329 333 331 327 329 337 339 333 330 329 330 332 333 333 333 332 333 335 331 327 332 337 335 335 336 334 335 335 332 330 327 322 319 320 320 319 320 320 319 319 319 319 319 318 317 317 316 316 315 315 314 314 314 313 313 313 314 314 314 313 313 312 311 310 310 310 310 310 310 310 309 309 309 309 310 310 310 310
330 329 331 335 330 329 334 331 328 332 334 333 329 327 336 346 337 327 329 331 330 331 333 335 332 330 334 334 326 325 332 337 335 332 330 331 329 323 321 321 321 320 321 321 320 320 320 320 320 320 319 319 319 319 318 317 317 316 315 315 315 314 314 312 312 312 312 313 312 313 312 311 311 310 310 310 310 310 310 310 310 309 309 310 310 310 310
329 328 331 333 325 329 342 343 339 341 340 341 338 326 329 345 341 327 327 332 333 333 332 333 334 329 327 333 333 328 331 337 334 326 322 320 320 319 319 320 321 320 321 321 320 320 320 320 320 320 320 320 319 319 319 318 317 317 316 316 316 316 314 313 312 312 311 312 312 312 312 311 311 310 310 309 310 309 309 309 309 309 308 309 310 310 310
330 327 329 330 327 333 345 348 343 337 335 342 340 325 325 342 344 330 326 330 333 333 330 330 333 328 324 332 339 336 332 331 330 327 322 318 318 320 320 320 320 321 321 320 320 320 320 320 320 320 320 320 319 319 319 319 318 317 316 316 316 316 315 314 313 312 311 312 312 312 312 311 310 310 310 309 309 309 309 308 308 308 308 309 309 309 308
331 331 333 335 332 331 336 344 343 334 333 338 331 323 332 351 351 334 326 329 335 334 332 332 331 328 327 331 338 339 333 325 321 322 322 318 317 319 320 319 320 320 320 320 320 320 320 319 319 319 319 319 319 320 319 319 319 318 318 318 318 317 316 315 314 313 312 311 312 312 312 311 311 310 310 309 309 309 308 308 308 308 308 308 308 307 306
333 331 330 331 334 338 341 344 342 333 330 328 321 324 341 353 347 333 326 330 337 336 334 332 329 329 331 333 338 338 332 326 321 319 319 318 318 319 319 318 319 320 320 320 320 319 319 319 319 319 319 319 319 319 319 319 319 319 319 319 319 317 316 315 314 314 313 312 312 312 312 311 311 310 310 309 309 309 308 308 308 308 307 307 307 306 305
331 331 331 329 332 340 342 337 333 326 323 327 329 334 342 343 339 332 328 332 338 337 336 334 331 335 338 337 338 335 331 332 328 320 318 319 318 318 318 318 318 319 319 320 319 319 319 319 319 319 319 319 319 319 319 319 319 319 319 319 319 318 317 316 315 314 313 312 312 312 312 311 311 310 310 310 309 309 308 308 308 308 307 306 306 306 306
330 327 328 328 331 336 332 326 323 321 325 338 342 338 336 336 337 335 333 336 338 334 334 336 336 339 340 337 337 334 334 336 328 318 317 318 317 318 318 317 318 318 319 319 319 319 319 319 319 319 319 319 319 318 319 319 318 319 319 319 319 319 318 317 316 315 314 312 312 312 312 311 311 311 310 310 310 309 308 308 308 307 307 306 307 307 306
334 330 327 330 336 337 329 324 325 323 329 344 345 335 332 334 337 339 337 338 340 336 331 334 338 338 337 335 336 335 335 335 328 318 316 316 316 318 317 316 318 318 318 319 318 318 319 318 318 319 318 319 319 318 319 319 318 319 319 319 319 319 318 318 317 315 314 313 312 312 311 311 311 311 310 310 310 310 309 308 308 308 308 307 307 307 306
335 335 333 334 337 333 325 325 329 325 325 338 342 335 332 332 334 339 335 333 339 340 333 332 335 336 336 336 335 333 334 334 327 320 318 317 317 317 317 317 318 318 318 318 318 318 318 318 318 319 318 319 319 319 319 319 318 318 319 319 319 319 319 318 317 316 314 313 312 312 311 311 311 311 311 311 311 310 310 310 309 309 308 308 308 307 307
330 330 331 333 334 332 325 325 332 329 324 331 336 333 332 332 333 335 333 331 339 342 336 332 333 335 338 337 335 334 336 335 325 316 315 318 317 317 317 318 318 318 318 318 318 318 318 318 318 319 319 319 319 319 319 319 318 318 319 319 320 319 319 319 318 316 315 313 312 311 311 311 311 311 311 311 311 311 310 310 310 309 308 308 308 308 309
329 333 339 337 337 339 331 323 329 331 326 327 331 331 332 332 333 336 334 333 339 344 340 335 334 338 340 337 336 338 340 340 329 316 314 317 317 317 318 318 317 318 318 318 318 318 318 318 318 318 319 319 319 319 319 319 319 319 319 319 320 320 319 319 318 317 315 314 313 312 311 311 311 311 311 311 311 311 311 310 309 308 307 308 309 309 309
331 340 345 340 335 335 329 323 328 334 333 332 332 331 330 328 328 333 333 331 335 341 341 337 336 339 341 339 337 338 339 337 327 315 313 316 317 317 318 318 317 318 318 318 319 318 317 318 318 318 319 319 319 319 319 319 319 319 319 319 319 319 320 319 318 317 316 315 314 312 312 311 311 311 311 311 311 311 310 310 309 308 307 309 309 309 309
330 334 333 330 326 323 321 323 328 333 336 336 334 334 334 329 327 330 329 325 326 329 333 337 336 333 337 341 337 336 338 335 323 315 313 316 317 318 318 318 317 318 318 318 318 317 317 318 318 319 319 319 318 319 318 319 319 319 319 319 319 319 319 319 318 318 317 316 314 313 312 312 311 311 311 311 311 311 311 310 309 308 308 308 307 306 306
330 333 329 327 326 326 327 328 327 328 332 334 332 331 332 330 333 337 333 326 323 320 320 327 332 332 335 335 332 333 333 327 319 316 315 316 317 317 317 317 318 318 318 318 317 317 317 317 318 319 319 318 319 319 318 318 319 318 318 318 318 318 319 319 319 318 318 317 315 314 313 312 312 312 311 311 311 310 310 310 309 309 308 307 305 304 304
337 337 336 334 332 333 336 335 333 333 334 332 328 327 331 333 337 340 336 328 326 326 321 317 321 331 331 323 322 331 331 320 316 319 318 316 316 317 317 317 318 318 318 317 317 316 316 317 318 318 319 319 319 318 318 318 318 318 318 318 317 318 318 318 319 319 318 317 316 314 313 313 312 312 312 311 311 311 310 309 309 309 308 306 304 304 304
336 336 341 339 331 328 333 336 338 337 332 326 324 327 334 338 333 330 332 330 326 330 333 323 315 320 321 315 318 327 325 317 316 319 318 318 318 317 317 318 318 318 317 317 316 316 317 317 318 319 319 319 318 318 318 318 317 317 318 318 318 318 318 318 319 319 318 318 317 315 314 313 312 312 312 311 311 311 310 309 308 308 307 305 304 304 304
331 336 344 339 329 330 336 335 334 332 325 322 325 329 330 328 321 318 324 327 319 319 329 327 317 315 317 315 316 320 318 316 317 318 318 318 318 317 318 318 318 318 317 316 316 317 318 318 319 319 318 318 318 318 317 318 317 318 318 318 318 319 319 319 319 319 318 318 317 316 314 313 312 312 311 310 310 310 310 309 308 307 306 305 304 304 304
329 334 337 331 326 330 331 325 325 331 326 320 323 326 321 317 317 315 317 319 315 312 317 318 315 314 316 315 315 316 315 316 318 317 317 317 316 317 318 318 318 317 317 316 317 317 318 318 318 318 318 318 318 318 318 318 318 318 317 318 318 318 318 319 319 319 319 318 318 317 315 314 313 313 312 311 311 311 310 309 307 306 306 305 305 305 305
333 333 329 324 323 327 330 326 327 335 331 320 320 323 318 312 315 316 315 315 315 314 314 314 313 313 314 314 314 315 315 317 318 317 317 317 317 318 319 318 318 317 316 316 318 318 318 319 318 318 318 317 317 317 317 317 318 317 317 318 317 317 318 318 319 319 319 319 318 318 316 315 314 313 313 312 312 311 310 309 308 308 308 307 306 306 306
336 334 328 324 324 328 330 326 322 324 324 318 316 317 316 313 315 318 319 319 317 314 314 314 314 313 313 314 314 314 314 317 317 317 317 318 318 318 318 317 317 317 316 317 318 318 318 318 317 317 317 317 317 317 316 315 316 316 316 317 316 316 317 317 318 319 319 319 319 318 317 317 316 314 313 313 312 311 311 310 309 309 309 308 307 306 306
328 328 327 326 326 326 323 320 318 321 322 318 315 314 315 317 319 320 322 321 317 316 316 315 314 314 314 314 314 312 312 315 316 316 317 319 318 318 318 317 317 317 317 317 318 318 318 318 317 317 317 317 316 316 315 315 315 315 315 316 315 315 314 314 315 316 317 318 318 318 317 317 316 315 314 313 312 312 311 310 310 309 309 308 306 305 305
324 326 327 327 326 324 321 319 320 322 323 321 320 320 320 319 319 320 321 319 318 318 316 312 312 314 314 313 314 314 313 314 316 317 318 319 318 318 318 317 317 317 317 317 318 318 318 318 317 317 317 316 316 315 315 315 315 315 315 315 314 313 312 313 315 315 316 316 317 317 317 317 316 316 315 314 313 312 311 311 310 309 308 306 305 304 305
328 328 327 326 324 322 321 322 322 324 326 324 321 321 321 319 318 319 320 320 320 318 313 309 309 312 313 313 315 315 314 314 315 316 318 318 318 318 318 317 317 317 317 318 318 318 317 317 317 317 317 316 316 316 316 315 315 315 316 316 314 313 313 314 315 316 315 315 315 316 316 316 316 316 315 314 313 312 311 311 310 309 307 306 304 304 305
326 326 325 325 324 322 323 325 324 325 327 324 320 320 321 319 319 322 322 321 319 315 312 311 312 312 312 313 314 313 314 314 314 314 316 317 318 319 318 317 317 317 317 318 317 317 317 317 317 317 317 317 317 317 316 316 316 316 316 316 315 314 314 315 316 315 315 315 315 315 315 316 315 315 315 314 313 313 312 311 310 310 308 307 305 305 305
324 324 323 323 323 321 323 326 326 326 326 324 322 325 324 319 319 322 320 316 314 312 310 311 313 312 312 313 313 312 312 314 314 314 315 316 318 318 317 317 317 317 317 317 317 317 317 317 317 317 317 317 317 317 317 316 316 316 316 316 315 314 315 316 316 316 315 315 315 314 314 314 315 315 315 315 315 314 313 312 311 310 309 308 308 308 306
322 323 321 322 322 320 321 325 328 329 329 326 325 328 323 315 314 315 313 311 313 314 312 312 313 313 313 313 312 311 313 316 317 316 314 315 317 318 317 317 317 317 317 317 317 317 317 317 317 317 317 317 317 317 317 317 316 316 316 315 314 314 315 316 316 316 315 314 314 313 313 313 314 314 314 315 315 315 314 313 312 311 309 309 309 310 309
318 319 319 319 320 320 322 326 328 328 327 325 324 324 318 312 311 312 311 312 314 315 313 313 314 314 313 312 312 312 312 315 317 316 314 315 317 317 317 317 317 317 317 317 317 317 317 317 317 317 317 317 317 317 317 317 316 315 316 315 314 314 315 315 316 315 314 312 312 312 312 313 313 314 314 314 315 314 314 313 312 312 311 310 310 310 310
316 320 322 321 317 315 318 320 319 319 322 324 323 320 316 313 312 313 313 313 314 314 314 314 314 313 312 312 312 312 312 314 315 315 315 316 317 317 317 317 317 317 317 317 317 317 317 317 316 316 316 316 317 317 317 316 316 315 316 315 314 314 314 315 315 314 312 311 311 311 312 312 312 313 314 314 314 314 314 313 313 312 311 311 311 310 309
315 317 323 323 316 312 313 314 313 313 316 318 318 316 314 313 313 313 313 313 314 314 314 314 313 312 312 313 313 313 313 314 314 315 316 316 316 317 317 317 316 317 316 316 316 316 316 316 316 316 316 316 316 316 316 316 316 316 315 315 314 314 314 315 315 313 311 311 311 311 312 312 312 313 313 314 314 314 314 313 313 313 312 312 311 309 308
314 313 315 316 314 311 312 312 312 312 313 314 313 313 312 312 312 312 312 313 313 313 313 313 313 313 313 313 313 313 314 314 314 315 316 316 317 317 316 316 316 316 315 316 316 316 316 316 316 315 315 316 316 316 316 316 316 315 315 314 314 314 315 315 314 312 311 311 311 311 312 312 312 313 313 314 314 314 314 314 313 313 312 312 311 310 309
317 315 313 312 311 311 311 311 311 311 312 312 312 311 311 311 311 311 311 311 312 312 313 313 313 313 312 312 312 313 314 315 315 315 316 316 316 316 316 316 317 316 316 317 316 316 316 316 315 315 315 315 315 315 315 315 315 315 314 314 314 315 315 314 313 312 311 311 311 311 312 312 312 313 314 314 314 314 314 313 313 312 312 312 311 310 309
319 315 312 310 311 310 310 310 310 310 310 311 311 310 310 310 310 310 310 311 311 311 311 312 313 313 312 312 312 313 314 315 315 316 316 316 316 315 316 316 317 317 317 316 316 316 316 316 315 315 315 315 314 314 314 314 314 314 314 314 315 315 314 313 312 312 312 312 311 312 311 312 313 314 314 314 314 314 313 314 313 313 312 312 310 310 310
315 311 310 309 310 310 309 309 310 310 310 310 311 310 310 310 310 310 310 310 311 311 311 311 312 312 313 313 313 314 314 315 316 316 316 316 314 314 314 316 317 316 316 316 315 315 315 315 315 315 315 315 315 314 314 313 314 314 315 315 315 314 314 313 313 312 312 312 312 312 312 313 314 314 314 313 313 313 313 313 313 313 313 312 311 310 310
312 310 310 309 309 309 310 310 310 310 310 311 311 311 310 310 310 310 310 310 311 311 311 312 312 312 312 313 313 313 313 314 314 315 316 316 315 314 314 316 316 316 315 315 315 315 315 315 315 314 314 315 315 314 314 314 314 315 315 315 314 314 313 313 313 312 312 313 312 312 313 314 314 314 313 313 313 312 312 312 313 313 313 312 311 311 310
310 310 310 310 309 309 310 310 309 309 310 311 311 310 310 310 310 310 310 310 311 311 311 312 312 312 312 312 312 312 313 313 314 314 315 315 316 316 315 315 315 315 314 314 315 315 315 315 314 314 314 315 315 314 314 314 315 315 315 314 313 312 312 312 312 313 313 313 312 312 313 314 314 313 313 312 312 312 312 312 312 312 312 312 311 311 311
310 310 310 309 309 309 309 309 308 309 309 310 310 310 310 310 310 309 309 309 310 310 310 310 310 311 311 311 311 311 311 312 312 313 314 314 315 315 315 315 315 314 314 314 314 314 314 314 314 314 313 314 314 314 314 314 314 313 313 312 311 311 312 313 313 313 312 312 312 312 313 313 313 313 313 313 312 312 312 312 312 312 311 311 311 311 311
310 310 310 309 309 309 309 309 309 309 310 310 310 310 309 309 309 309 309 309 310 311 311 311 311 311 312 312 312 312 312 312 313 313 313 314 314 314 314 314 314 314 314 314 315 314 314 314 314 313 313 314 314 314 313 312 311 311 310 310 310 311 312 312 312 312 312 312 312 312 313 313 313 313 313 312 312 312 312 312 311 311 311 311 311 311 311
310 310 309 309 310 309 309 309 310 310 310 309 309 309 309 308 309 309 310 311 312 313 313 314 314 313 313 314 314 313 314 314 313 312 312 313 314 313 313 313 313 314 314 315 315 314 314 314 314 314 314 313 312 311 310 310 309 309 309 309 309 310 311 312 312 312 312 312 312 312 312 313 313 312 312 311 311 311 311 311 311 311 311 310 310 310 310
310 310 309 309 309 309 309 310 310 309 309 310 310 309 308 308 309 310 310 310 312 313 314 314 314 314 314 314 314 314 313 313 313 313 313 313 313 313 312 313 313 313 314 314 314 313 313 314 314 313 313 312 311 310 309 309 309 309 309 309 309 311 312 312 312 312 312 312 312 312 312 312 312 312 311 310 310 311 311 310 310 309 309 309 308 308 308
309 309 309 309 309 309 309 310 309 308 307 309 309 308 307 308 309 309 309 310 312 314 314 314 314 314 313 313 313 313 313 313 314 314 314 313 313 313 313 313 314 313 313 313 313 313 313 313 313 312 311 310 310 310 309 309 309 309 309 309 310 311 312 312 312 312 312 311 311 311 311 311 311 310 310 310 309 309 309 309 309 308 308 307 307 307 306
309 309 309 309 309 309 309 309 308 307 307 307 307 307 308 308 308 308 310 312 313 314 315 315 314 314 313 313 313 313 313 313 314 313 313 312 313 313 313 313 313 313 312 312 311 312 312 312 312 311 310 310 310 310 310 310 310 310 309 310 311 312 312 312 311 311 311 311 311 311 310 310 310 310 310 309 309 309 308 308 308 307 307 306 305 305 305
309 309 309 309 308 309 308 308 307 307 308 308 307 307 307 307 308 309 312 313 313 314 314 314 314 313 313 312 312 312 312 312 313 313 312 312 312 312 312 312 312 311 310 309 310 311 312 312 311 310 310 310 310 310 310 310 310 310 310 310 311 312 312 312 311 311 311 311 311 310 310 310 310 310 309 309 309 308 308 307 306 305 304 302 302 302 303
308 308 308 308 308 308 308 308 308 308 308 307 307 307 307 308 309 311 312 313 312 312 313 313 313 313 313 312 312 311 311 311 312 312 312 312 312 311 311 311 311 310 309 309 311 312 312 312 311 310 310 310 310 310 310 310 310 310 310 311 311 312 312 312 311 311 311 311 310 310 310 310 310 309 309 309 308 307 306 304 303 302 301 300 299 299 301
307 308 308 308 308 309 308 308 308 307 307 307 307 308 308 309 309 311 312 312 311 311 311 310 310 311 311 312 312 312 311 311 311 311 311 311 311 310 310 309 309 309 310 311 312 312 312 311 310 310 310 310 311 311 310 310 310 310 310 310 311 312 311 311 311 310 310 310 310 309 309 309 309 309 309 308 306 305 304 302 301 300 300 299 299 298 299
Wind_Speed
5 4 6 5 5 4 5 6 6 5 4 6 6 5 6 7 5 4 7 6 5 7 6 7 8 6 6 7 6 5 5 2 2 4 4 3 4 5 5 6 6 5 4 1 1 1 1 4 3 2 2 2 2 4 7 9 9 7 10 13 16 17 17 17 17 16 16 15 14 13 12 12 11 9 9 10 9 5 3 5 6 6 5 5 5 5 5
6 5 4 5 5 3 3 5 6 6 7 8 7 6 6 7 5 6 6 5 7 7 7 8 7 5 6 5 2 4 5 4 4 5 3 3 4 5 6 6 6 5 5 3 1 1 3 6 6 5 5 4 5 6 7 9 9 4 9 11 13 16 16 14 14 14 14 14 13 12 11 11 10 10 10 11 9 5 3 5 5 5 5 5 6 6 6
6 6 4 4 5 5 4 5 4 1 4 4 3 3 4 4 2 3 3 2 6 6 7 7 6 4 3 3 4 5 6 6 6 5 5 5 5 6 6 6 5 4 4 3 2 4 5 5 6 6 5 5 6 6 6 8 7 2 8 11 12 14 13 11 12 12 11 10 10 10 10 10 10 10 10 11 8 5 5 6 6 6 7 7 7 7 7
5 5 6 6 3 2 2 7 6 2 5 4 3 4 5 5 5 3 2 1 5 6 5 4 4 4 5 5 6 6 6 6 7 7 6 6 6 6 6 6 5 4 4 5 4 4 3 2 5 6 6 6 7 6 6 6 5 1 7 11 12 11 10 10 11 10 9 8 8 9 8 9 9 9 9 10 9 7 7 6 6 7 7 7 8 8 7
5 6 6 5 2 4 5 7 7 8 7 3 2 3 5 6 7 6 4 5 6 5 3 2 4 4 4 5 6 6 6 7 7 7 7 6 6 6 6 6 5 6 7 8 7 5 3 0 2 5 5 6 6 6 6 6 4 0 6 9 10 9 9 9 10 9 9 8 8 7 7 7 8 8 9 10 9 8 6 5 6 8 9 9 10 9 8
4 7 6 5 3 1 5 7 6 9 9 8 7 5 6 8 6 4 5 5 5 4 4 5 6 6 5 6 7 6 6 6 6 6 6 6 6 6 6 6 7 9 10 10 8 6 5 4 3 3 4 5 5 5 5 5 2 1 4 7 7 7 7 9 10 10 9 9 8 7 8 8 9 9 9 9 8 6 4 4 6 8 11 12 11 11 10
2 4 6 4 2 6 7 6 3 5 7 8 8 6 6 9 8 5 5 6 7 7 7 7 7 7 6 6 7 7 6 7 7 6 6 6 6 6 7 6 8 11 13 12 10 9 8 7 6 4 5 6 6 6 5 5 3 2 3 5 5 6 7 8 9 10 11 10 8 8 9 10 10 10 9 8 7 6 5 5 6 7 10 11 11 11 12
1 1 3 2 6 7 7 6 2 3 4 5 3 4 7 8 10 9 8 9 9 8 7 7 6 6 4 2 4 5 5 7 7 7 7 7 7 8 9 10 12 14 15 14 12 11 10 9 8 7 7 7 8 7 6 6 7 6 6 7 7 8 9 10 9 10 11 11 10 9 10 11 11 9 9 8 7 7 7 8 8 8 10 12 11 11 12
1 2 2 3 4 7 6 4 2 4 3 4 5 2 7 7 8 9 9 9 9 8 7 7 5 5 3 3 3 3 5 7 8 8 9 10 9 11 14 16 17 17 16 15 13 11 11 11 10 10 10 10 11 10 9 9 9 10 11 11 9 9 10 10 10 10 11 12 12 11 11 12 12 10 9 8 7 7 7 9 10 10 11 11 11 12 13
2 2 2 3 3 5 6 7 7 4 4 7 7 3 5 7 6 9 9 9 9 7 6 6 4 3 3 3 4 5 6 6 7 7 9 11 12 14 17 18 18 17 16 15 14 12 12 12 11 12 12 12 13 13 13 12 12 12 14 14 12 12 12 11 10 10 11 12 13 12 12 12 12 10 8 7 7 7 8 9 10 11 12 11 11 12 14
1 3 1 3 3 5 7 8 9 6 4 8 7 4 5 7 6 8 10 9 8 7 7 6 4 4 0 5 6 6 7 7 7 7 8 10 12 15 18 18 18 18 18 16 15 14 14 13 12 12 13 14 15 16 17 16 14 15 16 16 15 15 14 12 11 11 11 12 13 13 13 13 12 11 9 8 7 7 8 8 9 10 11 12 11 11 12
2 4 3 4 4 6 8 7 6 4 4 8 8 3 7 7 5 7 10 10 8 8 8 6 5 5 5 6 6 7 8 9 9 9 10 10 11 14 17 16 16 18 19 18 17 16 15 15 14 13 13 15 16 18 19 18 18 18 18 18 17 16 16 15 13 12 12 12 13 13 14 14 13 12 10 9 7 7 8 8 8 8 9 11 12 12 13
4 4 4 4 4 6 8 7 6 6 4 6 4 5 7 5 5 6 8 9 8 8 7 6 5 6 7 7 6 7 8 7 9 12 13 12 10 11 14 14 14 17 20 19 18 17 16 15 14 13 13 14 16 17 18 19 20 21 21 20 18 17 17 17 15 13 12 13 14 14 15 14 13 12 11 10 9 9 10 9 9 9 11 12 14 16 16
3 4 3 3 5 7 6 5 6 6 4 2 6 7 5 4 5 5 6 7 7 7 7 7 6 6 7 6 6 7 7 7 8 10 12 10 9 11 12 13 14 17 19 20 19 17 15 15 14 13 13 14 15 16 16 18 19 20 21 21 20 19 19 19 17 15 14 14 14 15 15 15 14 13 12 11 11 10 9 10 11 12 13 15 17 18 17
3 2 2 1 5 7 5 8 4 2 4 6 6 4 3 4 6 6 6 6 6 7 7 7 7 6 6 6 7 7 7 8 8 10 12 12 12 13 13 14 15 17 18 19 18 15 12 11 10 10 12 14 14 14 15 15 15 17 19 21 21 20 20 21 20 17 15 15 15 16 16 16 15 14 13 12 10 9 9 10 12 14 15 16 18 20 19
4 3 4 5 5 6 7 9 6 7 8 6 5 6 5 5 5 5 5 6 6 7 7 7 7 7 6 7 7 7 7 7 8 11 13 13 13 14 16 15 16 17 17 15 14 11 8 7 8 8 9 11 12 13 13 13 13 14 17 18 20 20 20 21 21 19 17 16 16 17 17 16 15 14 14 13 11 9 9 11 13 16 17 19 21 22 20
4 5 7 7 5 5 8 8 8 9 9 6 6 8 6 5 5 5 5 6 7 7 8 7 7 6 6 7 8 8 8 8 9 10 12 13 13 15 15 13 14 16 15 12 11 9 8 8 9 9 8 9 9 11 12 12 13 14 15 16 19 19 20 21 22 21 19 18 18 18 17 16 16 15 15 14 12 11 11 12 16 18 18 19 19 17 14
4 4 5 5 3 4 8 9 6 6 8 7 6 7 6 6 7 6 6 7 7 7 8 7 6 6 7 7 8 8 7 8 9 10 12 13 13 12 12 13 15 15 12 11 10 9 8 8 9 9 9 10 11 13 13 13 13 14 15 16 18 19 19 21 23 22 21 19 19 19 18 17 16 15 15 15 14 13 13 14 16 17 16 16 13 9 7
2 4 6 6 6 6 9 9 6 4 6 6 5 6 6 6 7 7 7 8 7 7 8 8 7 8 8 7 8 7 6 7 8 9 12 13 13 12 14 17 17 14 13 12 11 10 10 9 9 10 10 10 11 12 12 12 13 13 13 14 16 18 19 20 22 23 23 21 21 21 19 18 17 16 16 16 15 15 15 15 16 17 15 12 9 7 7
4 5 8 6 4 3 4 6 6 5 5 5 5 6 7 6 5 6 6 7 6 6 7 8 8 7 8 8 8 7 6 7 8 9 13 15 14 14 18 20 18 16 16 14 12 11 10 8 9 9 9 8 9 10 11 12 12 11 12 13 15 17 18 20 21 23 24 24 24 23 21 20 19 18 18 18 18 18 17 17 17 17 16 14 12 10 9
2 6 6 3 3 5 5 3 5 5 5 4 4 4 5 6 6 6 6 5 6 7 8 8 8 8 8 8 8 8 7 7 8 11 16 17 17 18 21 21 19 18 17 14 12 10 9 7 7 7 7 7 9 11 11 10 9 10 11 13 13 15 17 19 20 20 22 24 25 25 24 22 21 20 19 19 19 19 19 18 18 18 17 18 17 14 12
2 5 5 2 2 1 4 4 5 6 5 3 1 1 1 4 6 6 6 6 6 6 8 8 8 7 8 8 8 8 7 8 11 16 18 18 18 21 22 21 20 19 16 13 10 8 8 8 7 7 7 8 9 9 9 8 8 10 12 13 13 14 15 16 18 19 20 23 25 26 25 24 22 22 21 20 20 20 19 19 19 19 20 20 18 15 13
5 7 7 5 4 2 5 6 6 6 4 5 4 3 4 5 6 6 6 6 6 6 9 10 10 8 8 9 9 7 8 12 17 19 19 19 19 21 22 22 21 19 15 11 10 9 9 9 9 8 8 8 8 8 9 10 11 12 13 14 15 15 15 15 16 18 19 21 23 25 26 25 24 23 23 22 22 22 21 20 20 21 21 21 19 17 15
5 6 7 6 5 4 6 7 7 7 6 6 6 6 6 6 6 6 7 7 8 7 7 9 11 12 10 11 10 8 9 14 19 20 21 22 23 23 23 24 23 19 14 11 10 10 9 8 8 8 8 8 9 10 11 12 12 13 14 15 16 15 14 14 14 15 17 19 20 23 25 25 25 24 24 23 23 23 23 22 21 21 22 22 20 18 17
5 6 7 8 7 7 7 5 5 6 6 6 6 6 7 7 8 7 7 7 9 9 7 7 10 13 13 12 12 10 11 15 19 20 21 21 21 22 23 23 22 17 13 10 10 9 8 9 9 9 9 9 10 11 12 12 13 13 12 12 11 11 11 12 13 14 16 17 19 21 24 25 25 25 24 24 24 24 24 23 22 22 23 22 22 19 17
7 7 5 4 5 6 3 1 4 7 7 8 7 6 8 10 10 9 10 9 11 11 10 8 10 13 14 13 13 13 13 15 17 17 16 15 16 20 22 23 20 15 12 11 10 10 10 10 9 9 10 10 12 13 13 13 13 12 10 8 7 8 9 11 12 13 14 15 17 19 22 25 26 26 26 26 25 25 23 22 22 23 24 24 23 20 17
5 6 5 3 4 5 4 5 6 8 8 8 7 6 10 13 12 11 10 10 12 13 13 13 15 16 15 13 11 11 11 12 12 12 13 15 19 23 24 22 18 14 13 12 12 13 12 10 8 9 10 11 13 14 13 12 11 10 9 7 6 7 9 11 12 13 14 15 17 18 20 23 24 26 26 27 26 25 24 22 22 23 25 25 23 20 18
4 4 6 6 6 7 7 6 6 5 6 7 8 8 10 11 9 7 7 8 9 10 12 14 15 14 13 14 13 11 10 10 11 11 14 19 23 25 23 19 16 15 15 15 15 14 12 9 9 9 10 13 13 10 7 6 6 6 6 5 5 7 9 10 12 13 14 14 15 16 18 20 21 23 25 25 25 25 25 23 23 23 24 24 23 21 18
6 6 5 6 7 7 6 5 5 5 7 9 9 7 7 7 6 6 7 8 7 7 8 12 15 15 15 16 15 12 9 10 12 14 17 21 24 24 21 19 17 16 16 17 16 15 13 11 11 11 11 11 9 6 5 6 6 5 5 5 6 9 10 10 12 14 15 15 15 16 17 18 19 20 21 22 24 24 24 23 23 23 24 23 21 20 18
8 7 6 6 6 5 4 5 6 7 7 6 5 5 4 4 5 6 7 7 6 6 9 11 13 14 15 15 16 16 15 14 16 19 22 24 26 24 22 19 16 15 16 17 16 15 14 13 12 12 11 9 8 7 8 8 8 8 8 8 9 11 11 11 11 12 12 13 13 15 16 18 19 20 20 21 23 23 24 24 24 23 23 22 21 21 19
7 7 6 6 5 5 5 5 5 6 6 4 3 3 3 2 3 6 7 6 6 7 10 11 10 11 14 16 18 19 19 18 19 21 23 25 26 24 22 21 19 16 16 17 17 15 14 13 13 12 11 10 10 10 10 10 10 10 10 10 10 10 9 8 8 9 10 10 11 12 14 16 18 20 21 22 23 23 24 24 23 23 22 21 21 22 21
7 7 7 7 6 6 6 5 4 5 5 3 2 3 4 4 4 5 6 6 7 8 9 9 9 11 14 16 16 17 18 19 20 21 22 24 24 23 23 23 22 19 17 18 17 16 14 14 15 15 13 12 13 13 12 13 13 13 13 12 10 9 7 7 7 9 11 11 12 12 13 15 17 19 21 22 23 24 25 23 23 23 23 21 21 22 21
6 7 7 7 7 6 7 6 4 5 5 4 4 5 5 5 5 5 6 7 7 7 7 8 11 15 16 15 15 16 17 17 17 16 17 20 22 24 25 24 21 19 18 18 17 16 15 16 17 18 16 16 16 16 16 16 16 16 15 13 10 8 8 8 9 10 11 12 13 13 14 15 17 18 20 21 23 25 25 24 23 23 22 22 23 22 22
8 8 9 9 8 7 7 6 5 5 5 4 4 5 5 6 6 7 7 7 6 6 8 11 14 17 17 16 17 17 15 11 8 11 15 20 23 26 26 24 23 21 19 17 17 16 16 17 18 18 17 17 18 18 19 19 19 19 17 13 10 9 10 10 10 10 10 12 13 14 15 15 16 18 19 20 22 24 24 24 24 23 22 23 24 24 23
9 9 8 8 7 7 6 5 5 5 5 4 5 5 5 7 8 8 8 8 8 9 13 15 15 16 16 15 15 15 13 12 12 15 18 23 27 29 28 26 24 21 19 19 19 17 16 17 18 18 18 18 19 20 21 21 22 21 17 13 10 10 11 11 11 10 9 10 12 14 15 16 17 18 18 20 21 23 24 24 24 24 23 24 25 25 25
9 6 5 5 6 6 6 6 5 6 5 5 5 5 6 8 9 9 10 12 13 14 16 16 15 14 14 13 14 14 15 16 19 21 22 25 30 30 27 24 22 20 19 19 19 17 15 16 17 18 19 19 20 21 21 22 22 21 17 13 11 11 11 12 12 10 9 10 11 13 14 16 17 18 19 20 21 22 23 24 25 25 24 25 25 25 24
7 7 5 5 6 7 6 4 4 4 3 3 4 4 5 8 10 12 14 16 17 18 18 16 14 13 13 14 15 16 17 18 20 22 23 26 28 26 23 21 20 19 17 16 17 17 16 15 15 16 18 20 22 22 21 21 21 20 16 13 12 13 14 14 12 10 9 10 11 13 14 16 17 18 18 19 19 19 21 22 24 25 25 25 25 24 24
7 5 4 3 3 3 2 5 6 7 6 5 5 5 6 8 11 13 14 16 17 19 19 18 17 15 15 15 14 15 17 19 20 21 24 25 24 22 20 20 21 20 18 18 19 18 16 15 14 15 16 19 20 20 19 19 19 19 16 15 15 15 15 14 12 10 11 11 12 13 15 16 18 18 17 17 17 18 19 21 23 24 25 26 26 24 22
4 4 4 6 8 10 10 11 13 12 10 7 6 9 11 12 13 14 14 16 18 19 19 19 18 16 14 12 12 13 17 20 19 20 22 24 24 24 23 24 25 24 22 21 19 16 15 14 14 14 15 17 18 17 17 17 18 18 17 17 17 16 15 13 11 11 12 13 14 14 16 18 18 17 16 15 16 17 19 21 23 23 24 25 25 22 18
4 4 6 8 9 9 10 10 10 10 9 7 7 9 12 14 15 14 14 17 19 20 19 18 16 14 13 13 12 13 16 19 19 19 20 21 22 20 18 20 24 25 23 19 17 16 15 15 15 15 16 17 17 17 17 17 17 17 18 18 17 16 14 12 12 13 15 15 15 17 18 18 16 14 13 14 16 18 19 20 21 22 22 23 22 20 17
4 3 5 6 7 8 9 8 8 9 10 11 11 12 13 14 14 13 14 17 20 21 20 18 15 14 16 17 18 18 17 17 17 17 18 18 18 13 10 15 23 25 21 18 18 18 17 17 17 18 18 18 18 18 17 16 15 16 17 16 15 13 12 12 14 15 16 17 17 18 18 15 12 11 12 14 16 17 18 19 19 19 19 19 19 18 18
3 4 5 5 6 7 9 9 9 9 11 12 14 15 17 18 17 16 17 19 19 19 19 18 18 17 19 20 21 22 21 19 17 17 18 21 22 17 12 17 24 24 19 19 22 22 20 19 19 18 17 17 17 17 16 14 14 14 14 13 12 11 12 14 16 16 17 17 17 18 16 13 11 11 12 12 14 16 17 17 17 17 17 16 16 16 17
1 3 4 3 4 6 7 8 8 7 7 9 12 14 17 19 19 19 20 21 20 18 17 18 20 20 21 21 20 19 20 21 19 17 18 24 29 28 23 22 23 22 21 23 25 24 21 19 17 14 14 15 16 15 14 12 11 11 11 11 11 12 14 15 16 16 16 16 17 17 16 13 10 10 10 10 11 13 14 14 15 15 16 15 15 15 16
4 4 4 4 5 6 6 6 7 6 6 8 11 14 16 18 20 21 20 20 20 19 18 18 19 20 21 21 19 17 18 22 22 19 16 17 21 24 25 23 20 20 23 24 23 21 18 17 15 15 15 15 14 13 10 9 9 9 10 11 12 13 14 14 15 15 15 16 17 16 14 12 10 10 9 9 10 12 12 13 13 13 13 13 13 13 14
6 5 5 6 7 8 9 10 9 7 7 10 14 17 18 20 22 23 21 20 20 20 19 17 16 16 17 18 18 18 20 21 21 18 14 10 9 14 18 19 18 20 22 22 20 19 18 18 17 16 15 14 13 11 9 8 9 9 10 11 11 11 12 13 13 14 15 15 14 12 11 11 10 10 9 9 10 11 11 11 11 11 11 11 12 13 14
5 6 8 9 10 11 12 11 8 7 10 12 13 16 19 21 22 22 21 20 20 19 17 16 15 14 13 14 16 18 18 16 13 11 11 11 11 12 14 16 18 20 21 22 22 20 19 18 18 17 15 14 12 10 8 8 8 8 8 9 9 9 9 10 11 12 12 11 11 10 10 11 11 10 9 9 10 10 10 11 11 11 12 12 12 13 14
5 5 6 8 9 11 11 9 7 8 10 9 7 10 17 21 20 20 22 23 21 18 16 16 15 15 14 13 13 13 13 9 6 5 6 7 8 10 12 14 15 17 18 19 20 19 18 18 18 16 14 12 9 8 7 7 7 7 7 8 8 8 8 9 10 10 9 10 10 10 10 11 11 10 9 9 9 9 10 11 11 12 12 12 12 12 13
5 4 5 5 6 8 8 8 6 7 8 7 8 12 17 19 19 20 23 23 21 18 17 17 16 15 14 13 11 11 9 6 5 5 6 5 5 6 7 6 7 10 14 14 12 13 16 17 16 13 11 9 8 8 8 7 7 7 8 8 8 8 9 10 10 9 9 9 10 10 11 12 11 10 9 8 9 10 11 11 12 12 12 12 12 12 13
7 6 5 6 6 7 7 6 5 6 8 11 13 16 18 19 19 20 21 19 17 16 17 17 16 15 14 14 13 13 12 10 8 8 7 6 6 7 7 7 7 9 11 9 8 11 14 15 12 11 11 10 10 9 8 7 7 9 10 10 10 9 9 10 10 9 8 9 9 10 12 13 12 10 9 9 10 11 11 11 12 12 13 14 14 14 13
8 7 7 8 9 9 9 7 6 9 12 14 16 18 19 17 15 15 17 16 15 15 16 17 17 17 17 16 15 16 16 15 13 12 11 11 11 13 14 15 13 11 12 13 16 17 16 15 13 13 13 12 10 9 8 8 10 11 11 11 10 10 10 11 11 9 8 8 9 10 12 13 12 10 10 10 11 10 10 10 11 13 14 15 14 13 12
9 10 12 13 12 11 11 10 11 13 16 17 18 19 19 15 12 12 14 14 13 14 16 17 19 21 21 19 18 18 17 17 16 15 15 16 16 16 17 18 18 17 18 19 20 21 21 20 18 16 14 12 11 10 8 8 9 10 11 11 11 12 12 13 12 9 8 8 9 11 11 11 12 11 11 11 10 9 9 10 12 14 14 13 11 10 9
13 14 14 14 13 12 13 15 17 19 19 19 19 18 15 12 11 12 12 11 11 12 13 14 16 21 24 23 22 21 20 19 19 18 17 17 16 16 17 18 18 18 17 18 21 23 23 21 19 16 14 14 12 10 9 8 9 9 10 11 12 13 13 12 11 9 7 7 8 9 9 9 10 10 11 10 9 8 9 11 13 13 12 9 8 7 8
Wind_Direction
276 221 211 202 162 167 180 175 195 214 180 145 153 199 199 147 136 232 224 190 212 249 262 263 257 243 232 242 239 209 208 211 108 85 86 137 197 216 214 224 233 229 238 262 136 199 338 30 31 346 317 312 327 346 346 345 336 291 245 226 219 216 215 218 223 227 229 239 250 244 233 234 241 253 258 244 234 240 265 251 250 259 263 265 278 287 295
306 279 254 222 185 172 190 202 209 200 185 180 183 203 192 159 178 215 195 202 241 245 238 245 254 240 219 223 206 155 158 159 130 125 139 161 177 188 199 215 225 223 219 207 171 132 49 46 37 19 5 353 348 350 347 351 350 291 221 209 208 208 210 217 225 232 239 248 254 245 233 236 245 253 249 233 225 233 246 242 249 258 256 260 274 284 294
308 297 311 271 211 185 216 258 286 156 152 169 183 189 166 153 216 225 159 224 275 260 229 235 264 256 195 154 160 170 171 170 158 161 179 180 178 182 184 194 199 195 194 191 145 97 81 54 31 22 14 4 1 0 356 360 6 298 214 208 205 207 213 225 233 238 247 252 248 235 228 236 245 244 232 220 216 220 221 230 252 265 268 272 278 282 290
292 290 334 306 255 105 327 301 297 228 157 158 197 200 180 171 175 161 109 285 268 258 240 247 262 228 184 177 191 195 198 187 169 173 187 188 189 189 186 189 187 176 187 184 152 122 103 42 11 4 359 356 358 1 1 3 13 288 218 212 207 212 226 236 239 244 250 242 225 218 224 232 232 223 209 202 204 212 224 248 277 284 285 287 289 290 289
279 286 336 333 41 54 327 282 241 205 193 196 220 232 221 189 151 139 174 221 233 234 233 244 243 222 216 227 213 198 207 205 184 180 183 181 192 198 191 186 178 178 188 183 166 157 161 200 339 337 338 346 353 2 5 360 7 241 218 215 217 229 239 241 243 248 245 230 218 223 234 232 221 209 200 200 207 220 238 277 307 304 297 298 302 302 298
273 290 342 19 59 132 255 252 203 185 190 192 197 216 220 200 175 166 200 227 244 239 218 214 222 226 226 230 224 208 193 188 190 193 184 174 183 194 182 172 175 184 188 187 181 182 199 219 241 281 294 305 319 329 336 335 343 151 196 210 224 240 242 241 246 248 241 228 225 239 245 235 223 213 208 212 223 236 256 304 324 312 300 298 301 302 299
238 309 17 35 237 229 248 281 272 185 176 172 188 231 234 204 207 226 231 244 247 235 225 220 217 226 232 240 250 238 192 168 171 176 182 182 179 177 176 175 183 186 184 184 189 198 212 221 224 241 253 257 271 285 292 291 284 250 218 228 249 261 262 262 260 252 244 239 245 257 249 229 219 217 220 233 247 254 270 295 306 307 301 295 296 301 300
216 356 59 179 243 258 282 316 351 118 104 109 138 290 278 221 203 209 220 236 240 233 243 249 225 210 221 263 266 237 188 169 164 162 180 196 191 183 184 186 185 184 185 190 198 208 219 225 232 244 247 245 252 264 271 272 272 270 262 261 270 270 269 272 267 254 250 251 256 260 246 227 222 228 239 254 262 263 273 280 278 289 297 292 292 302 303
171 176 214 244 293 306 306 300 232 167 159 152 146 216 272 241 199 194 208 229 238 235 245 252 218 164 95 22 313 245 205 187 181 177 186 200 206 201 197 196 195 194 199 207 213 221 226 227 234 241 244 244 246 251 256 259 261 263 260 257 264 269 266 267 264 259 260 261 257 252 242 232 234 242 249 258 263 260 266 269 270 283 296 291 285 290 295
113 118 293 309 314 293 269 250 254 242 180 160 138 122 285 270 223 198 200 216 229 223 219 225 202 128 59 330 272 248 240 220 198 197 207 213 218 214 208 206 204 203 209 218 223 226 226 229 238 243 242 242 242 244 249 250 249 250 250 251 256 258 255 256 260 261 264 261 254 252 247 241 242 245 248 258 265 259 259 267 276 289 296 292 283 283 289
109 124 196 235 224 251 248 245 268 276 164 132 98 50 299 270 232 195 194 210 219 202 191 188 147 110 217 267 256 240 235 224 204 203 222 228 225 218 215 215 213 210 213 219 224 225 226 232 242 247 246 245 243 244 248 250 248 246 247 251 256 254 248 248 254 258 261 257 251 251 251 246 243 244 249 260 264 258 262 276 291 297 293 286 286 292 298
191 148 195 238 230 246 251 247 253 242 146 96 72 357 272 257 235 195 184 197 205 186 176 166 139 150 202 235 245 224 211 217 216 209 218 232 229 219 218 221 219 215 214 216 220 222 225 235 246 252 254 254 249 247 250 250 248 249 252 256 258 256 250 247 248 252 256 254 250 251 253 251 246 246 252 259 259 258 267 280 292 299 293 286 289 297 300
191 172 216 264 262 246 249 238 199 179 123 75 98 225 238 232 228 204 177 180 191 179 168 168 177 200 209 215 224 211 198 212 225 218 224 238 236 218 213 215 216 215 214 215 218 223 230 240 248 252 257 261 259 257 257 252 249 254 260 261 260 256 249 245 245 248 250 249 250 253 256 255 250 249 253 258 261 268 276 284 292 296 294 291 292 296 298
183 181 205 280 288 253 222 178 160 156 138 172 216 224 221 186 191 197 181 180 186 179 176 186 202 224 229 220 215 206 197 205 222 226 230 229 213 200 200 205 210 213 214 215 220 228 236 243 250 256 261 267 267 265 262 260 263 268 267 264 262 257 249 245 245 245 246 247 249 252 253 251 249 250 252 253 262 275 282 286 291 293 291 291 292 296 300
154 150 169 262 279 256 179 124 114 173 186 207 216 205 196 191 181 180 190 195 191 186 193 209 216 223 226 217 211 210 208 210 216 217 213 204 196 196 201 207 211 212 213 214 220 226 233 240 250 257 262 268 271 269 268 276 286 285 275 268 264 259 252 247 244 243 244 246 247 246 246 247 248 249 248 248 260 280 285 281 284 286 287 291 293 297 301
139 152 203 212 227 224 172 146 169 206 201 196 172 159 187 220 202 184 201 221 212 193 197 216 222 219 216 211 212 215 216 219 217 208 205 206 203 202 207 213 211 205 203 204 209 216 227 242 253 258 267 278 283 279 281 294 304 298 285 274 265 260 255 249 245 243 243 244 245 242 240 242 244 245 245 248 260 277 278 272 274 278 283 290 294 298 300
175 180 210 221 222 209 191 187 197 201 200 195 165 160 179 215 211 188 192 218 223 204 200 211 216 217 216 210 207 208 209 213 212 207 208 210 207 209 217 216 200 192 192 194 202 219 238 250 257 264 274 285 289 290 297 308 311 306 296 279 266 261 258 251 247 244 242 242 241 238 235 236 238 242 246 249 255 265 268 266 269 273 280 290 296 296 292
238 242 227 217 225 221 213 216 216 197 197 199 179 173 190 212 212 195 187 206 215 204 197 201 210 219 218 211 213 214 210 212 215 212 210 209 210 216 215 197 185 187 193 200 211 230 247 254 262 272 276 275 280 290 298 305 308 309 301 284 270 265 261 255 249 244 241 239 237 235 233 235 239 245 250 250 253 260 261 262 267 271 279 289 293 283 269
198 259 247 215 207 213 211 217 237 245 228 217 196 194 209 215 210 205 204 206 202 189 183 187 202 215 208 203 218 224 215 213 217 215 213 215 218 214 196 184 183 190 198 206 218 232 245 261 279 284 279 276 281 289 294 296 302 308 305 290 277 270 266 260 252 245 241 238 236 233 232 233 237 244 247 247 250 254 254 255 262 268 273 277 270 248 247
169 234 254 245 235 247 223 206 217 245 256 242 221 217 227 235 236 233 224 204 187 183 185 187 195 208 204 201 211 218 213 213 214 212 215 218 216 203 190 186 190 196 201 208 218 231 247 275 294 286 276 281 290 295 297 297 295 298 302 299 289 280 273 266 257 250 245 242 238 235 232 232 234 240 244 245 247 251 253 256 262 265 263 255 248 246 249
254 266 276 308 359 342 327 259 212 224 238 239 244 239 224 226 238 245 241 222 198 191 196 191 189 205 217 209 205 208 210 213 215 217 220 221 212 198 192 193 196 199 203 208 217 232 255 279 280 266 267 284 297 298 299 300 296 295 301 303 299 292 282 271 263 259 254 248 243 239 236 235 236 240 245 247 249 253 258 260 262 265 260 253 252 257 258
283 255 244 204 142 251 283 255 225 230 219 182 113 7 212 220 230 223 221 237 237 223 220 210 194 207 230 224 209 208 213 215 220 222 223 222 213 202 198 199 200 201 202 207 218 239 260 262 253 254 269 283 290 291 292 296 297 298 301 304 302 297 288 276 269 266 262 256 250 243 239 237 238 240 243 246 247 252 257 259 259 261 259 254 254 259 262
224 228 222 194 147 188 245 234 229 240 211 149 149 199 212 225 233 208 194 224 250 253 244 228 207 208 232 228 213 212 224 226 227 227 225 221 214 207 202 198 198 199 201 208 225 246 255 251 246 251 263 273 280 284 289 294 294 293 295 297 297 295 291 283 277 271 267 263 257 248 241 239 240 241 242 244 246 249 253 256 257 256 254 251 253 259 265
222 228 213 190 163 198 230 218 217 228 210 173 189 217 220 227 237 223 209 222 232 235 248 244 224 217 230 236 226 221 234 239 237 233 229 224 218 210 202 195 194 197 202 214 232 246 249 241 237 244 256 269 281 288 291 291 290 290 291 293 295 295 291 287 284 276 269 267 263 254 246 241 240 241 242 242 244 248 251 254 254 252 250 249 251 257 264
222 229 206 187 187 208 222 220 232 240 217 190 199 222 224 229 239 237 232 239 238 228 229 241 231 219 221 230 230 226 234 247 250 245 237 229 219 206 197 193 195 201 209 221 233 239 235 227 227 240 259 274 283 287 287 286 287 290 292 293 298 300 295 292 289 281 273 270 266 258 251 246 243 243 242 239 241 246 249 251 252 250 249 249 251 256 262
217 224 205 186 201 216 214 234 274 265 238 210 203 214 220 224 234 239 237 243 245 234 220 224 238 235 226 225 230 232 235 246 256 254 243 228 211 199 193 195 201 206 213 221 226 225 220 218 226 249 268 276 280 283 283 282 280 281 284 288 297 304 305 301 294 286 280 275 270 264 258 252 248 247 246 244 244 245 246 248 249 249 250 251 250 253 263
224 206 191 206 264 264 238 212 226 242 236 217 207 223 242 245 246 245 244 247 247 242 238 242 252 254 248 241 241 242 242 247 253 246 231 218 207 200 198 200 204 209 214 218 218 214 212 216 237 260 272 277 281 285 285 280 273 272 278 288 301 312 315 311 303 295 289 284 280 274 267 260 254 252 251 251 248 245 244 246 248 251 255 255 249 248 256
256 215 189 197 228 243 242 239 243 259 265 251 239 246 260 264 254 236 239 250 251 250 253 255 253 250 250 253 253 246 240 242 238 226 221 218 211 204 201 203 205 211 217 217 212 209 210 224 246 261 272 278 279 281 279 271 267 268 272 283 303 312 313 314 313 308 299 292 287 281 276 271 266 261 257 253 248 244 245 248 250 253 259 259 251 245 247
254 244 222 219 225 232 251 277 282 272 265 263 262 262 265 263 253 242 245 251 249 250 261 264 260 252 247 249 250 243 232 228 223 218 218 217 210 203 202 206 210 214 215 212 209 210 216 228 243 256 269 271 263 250 248 255 259 258 259 275 297 305 307 311 315 313 306 298 292 286 281 277 274 271 264 255 247 244 247 251 254 256 260 258 247 238 237
246 240 232 233 231 224 235 254 257 257 260 262 266 270 258 237 240 256 265 265 260 254 252 256 260 259 254 250 249 247 241 234 228 223 220 214 209 206 207 208 206 204 206 207 209 213 220 230 240 250 255 246 231 236 253 259 258 260 263 275 293 304 309 314 318 320 319 313 304 297 291 283 278 274 268 261 254 250 251 255 258 259 257 250 241 236 232
246 249 246 248 249 241 243 248 248 258 267 259 250 279 294 268 251 264 273 276 277 270 261 255 249 249 250 250 250 251 251 248 240 232 225 219 215 213 210 203 195 192 199 206 211 215 220 227 235 242 242 234 234 248 260 257 255 257 257 265 284 301 307 312 322 331 335 331 323 312 302 292 284 278 272 266 262 258 256 256 256 256 253 245 240 241 234
250 263 266 270 273 273 273 269 250 253 266 268 245 262 265 248 247 257 261 265 269 272 270 261 248 245 251 255 256 256 257 255 249 240 232 228 223 216 207 201 198 199 204 209 213 215 218 227 238 247 249 245 244 254 262 258 252 250 249 258 278 293 292 292 307 319 325 326 324 317 307 298 291 284 277 271 267 264 261 258 255 253 251 244 242 244 237
245 263 266 262 261 262 265 259 234 228 241 241 230 240 242 232 227 235 243 252 265 270 266 260 260 265 270 274 273 268 263 259 254 246 237 230 220 209 202 200 201 204 208 213 218 221 226 238 248 253 253 249 248 255 260 255 247 244 248 256 269 276 270 273 288 301 308 313 315 316 314 307 300 292 284 278 274 270 267 263 259 254 248 241 243 248 243
222 233 236 232 227 228 236 236 221 218 235 251 249 248 253 254 253 255 256 255 255 261 265 268 274 280 284 284 283 279 271 260 246 236 228 218 207 200 199 201 204 207 212 220 226 229 233 240 247 249 248 247 250 256 257 251 244 242 245 252 260 264 263 265 272 283 295 302 305 311 315 312 309 304 296 288 282 276 270 267 263 256 249 245 247 252 250
231 236 236 227 219 212 207 204 204 207 220 252 267 268 267 267 266 268 271 268 268 276 282 283 284 286 287 285 284 281 270 249 236 232 223 210 202 201 202 204 206 211 218 225 228 230 232 236 240 244 248 250 253 256 255 249 243 240 241 248 258 261 257 256 260 271 287 296 300 306 310 310 309 309 303 295 287 280 273 269 266 261 257 256 255 254 252
221 214 212 213 210 200 188 190 201 204 207 230 254 263 269 271 272 275 278 281 285 287 288 286 284 284 283 281 279 278 272 260 248 238 225 214 209 207 204 203 206 211 218 224 227 229 229 234 240 246 250 252 253 255 254 249 241 238 240 248 257 258 253 250 253 264 284 296 299 304 309 309 309 308 304 298 291 283 276 272 270 267 264 263 260 254 248
195 174 172 189 193 189 195 220 244 252 256 260 262 266 276 290 302 308 304 298 294 289 285 281 277 274 275 277 278 280 281 274 259 245 234 225 215 206 200 200 204 205 207 216 221 221 222 231 242 250 253 253 253 256 257 250 240 235 238 247 253 254 249 246 249 261 282 296 300 303 307 308 308 308 306 300 293 288 283 278 276 273 270 268 265 257 248
171 168 181 192 163 126 57 24 23 24 20 7 353 346 343 341 342 341 335 326 318 312 304 295 285 278 278 282 282 283 285 283 272 256 243 229 212 197 193 196 197 197 204 216 222 221 225 237 248 254 256 255 253 254 253 245 235 233 240 248 252 250 246 243 248 264 280 290 297 301 303 303 303 303 301 296 291 290 288 285 282 278 275 272 269 261 252
140 132 122 101 90 85 76 65 58 53 48 33 8 359 358 354 351 350 346 338 334 331 324 314 303 294 289 290 290 289 292 295 288 269 248 227 208 197 197 201 204 210 219 226 227 227 232 241 246 250 252 251 247 244 241 235 233 237 243 247 248 247 243 244 253 268 279 286 292 296 299 300 299 295 291 290 291 291 292 291 288 283 280 277 272 265 258
73 92 102 100 94 90 86 79 69 60 55 44 21 6 360 353 348 345 339 331 329 329 326 321 313 300 289 286 287 289 297 304 297 275 249 225 208 203 205 210 216 221 225 227 229 233 237 239 240 243 247 247 244 239 235 233 235 239 244 246 245 242 241 247 260 272 280 285 290 295 298 299 296 289 286 290 294 295 295 296 294 290 287 283 277 270 267
41 60 79 87 88 87 85 78 65 50 40 32 22 12 6 359 352 344 335 328 325 325 325 323 316 304 295 292 288 286 293 300 290 267 243 220 206 203 210 219 220 219 221 227 233 236 237 240 243 248 250 248 244 238 233 232 237 243 245 243 239 238 244 255 265 274 282 287 292 297 297 293 286 285 289 295 298 298 299 299 297 296 295 290 283 278 276
38 48 60 69 79 81 77 68 55 40 27 20 16 9 3 359 354 346 339 333 328 325 326 328 328 324 318 313 304 293 289 288 281 266 246 226 215 210 212 218 218 216 222 233 235 233 235 242 248 252 252 247 239 232 230 234 240 241 237 233 235 244 255 263 270 278 286 290 294 296 291 279 274 285 294 297 301 304 303 300 298 297 297 294 290 289 288
34 73 80 77 77 78 74 66 58 45 23 14 11 4 356 353 350 344 340 336 331 326 325 327 328 328 327 323 316 304 294 291 286 272 251 236 228 222 218 218 220 224 229 232 231 230 234 239 239 238 236 231 225 223 226 229 228 224 223 232 248 259 263 267 275 283 288 291 296 294 283 269 272 287 292 296 304 308 306 303 301 300 300 300 299 298 299
13 48 63 43 33 41 40 34 33 30 15 5 1 356 354 351 345 339 336 333 329 326 325 325 324 323 320 315 309 300 295 294 289 273 253 241 235 229 224 225 232 240 239 234 229 226 226 224 219 216 215 213 211 211 211 209 211 221 236 250 260 265 267 273 281 286 287 293 298 293 278 268 275 287 289 294 305 309 308 308 308 307 308 309 308 305 306
30 27 19 9 7 7 3 3 6 7 1 357 353 351 351 348 340 336 336 335 333 334 338 340 338 333 326 319 313 305 299 296 289 274 253 236 235 237 234 234 241 244 239 231 224 220 217 212 206 201 198 195 193 196 202 210 223 239 250 257 262 268 273 278 283 287 290 293 293 284 270 268 275 280 284 293 302 304 304 305 307 308 309 311 311 310 310
26 6 358 356 352 347 344 345 348 354 359 359 354 346 344 342 336 333 333 334 332 333 337 341 342 339 334 329 325 321 315 308 297 276 250 232 231 238 238 238 243 244 237 225 218 213 206 198 190 185 183 183 188 196 209 224 236 245 253 262 270 277 281 284 290 297 297 291 282 273 268 267 269 271 277 288 296 297 298 300 303 305 307 308 308 309 309
348 348 345 338 333 333 333 335 345 0 4 3 348 332 332 333 329 325 325 325 323 321 323 326 329 329 325 320 319 319 318 315 305 289 274 260 251 247 243 243 247 243 227 211 205 201 193 184 179 180 181 185 195 209 221 232 240 246 256 266 272 275 278 287 297 303 298 288 281 276 270 265 264 267 274 283 288 291 292 294 297 300 301 303 305 309 311
287 285 289 302 321 334 339 343 357 3 354 338 321 318 322 321 318 316 317 317 314 312 315 320 321 321 319 313 306 302 300 293 278 275 282 280 261 246 239 237 231 211 193 183 186 196 193 185 180 182 187 195 209 219 222 229 238 247 256 265 268 270 276 286 293 294 290 286 282 277 269 264 263 266 270 273 278 280 285 291 297 300 301 303 306 309 312
286 287 295 310 324 332 335 341 349 340 326 319 316 315 316 315 313 310 310 312 313 314 316 318 319 317 313 308 301 295 288 278 265 256 249 233 215 205 200 194 190 187 184 190 214 221 207 194 189 196 203 208 213 215 216 224 237 247 257 264 264 264 272 282 285 283 281 279 278 275 271 266 262 260 261 266 270 276 284 293 300 304 306 307 307 305 306
300 302 306 309 311 312 314 317 316 311 311 312 311 310 310 310 308 306 308 314 319 319 316 315 317 316 310 303 297 294 288 279 270 260 248 239 236 231 224 218 212 207 213 230 240 234 219 210 211 212 208 204 204 207 213 227 239 248 256 259 256 257 266 273 275 273 270 270 275 278 272 263 255 251 254 260 266 275 286 296 303 308 310 308 306 303 301
301 297 295 295 297 299 301 303 304 304 304 305 306 306 305 301 298 300 306 313 319 321 319 317 318 320 316 308 297 292 288 283 276 267 255 247 245 239 229 224 223 223 224 228 228 222 215 214 214 210 205 203 206 208 215 228 238 245 249 250 252 256 262 264 265 265 264 267 275 279 272 259 249 245 249 255 264 276 290 302 312 317 318 316 310 305 302
302 299 294 291 289 292 296 299 300 299 298 297 297 296 293 292 294 299 304 311 321 327 325 318 317 320 320 314 302 292 288 283 276 267 259 252 245 234 222 222 229 234 226 215 210 209 212 216 216 211 209 210 210 211 219 231 235 237 243 248 252 255 256 256 257 259 259 265 277 280 270 255 244 242 246 255 266 281 299 315 325 330 333 332 326 316 308